Regional Weather Roundup
Issued by NWS Northern Indiana

Home | Current Version | Previous Version | Graphics & Text | Print | Product List | Glossary On
Versions: 1 2 3 4 5 6 7 8 9 10 11 12 13 14 15 16 17 18 19 20 21 22 23 24 25 26 27 28 29 30 31 32 33 34 35 36 37 38 39 40 41 42 43 44 45 46 47 48 49 50
000
ASUS43 KIWX 291100
RWRIWX

KIWX WEATHER ROUNDUP
NATIONAL WEATHER SERVICE NORTHERN INDIANA
700 AM EDT FRI JUL 29 2016

NOTE: "FAIR" INDICATES FEW OR NO CLOUDS BELOW 12,000 FEET WITH NO
SIGNIFICANT WEATHER AND/OR OBSTRUCTIONS TO VISIBILITY.

* THESE STATIONS ARE NOT UNDER NWS QUALITY CONTROL. THEY ALSO MAY NOT
  REPORT WEATHER SUCH AS PRECIPITATION OR FOG.

INZ001>027-291200-
NORTHERN INDIANA

CITY           SKY/WX    TMP DP  RH WIND       PRES   REMARKS
KNOX*          CLOUDY    63  61  94 N3        29.92S VSB<1/4
SOUTH BEND     CLEAR     67  66  97 E3        29.93R
ELKHART*       PTCLDY    68  66  94 CALM      29.93  FOG
GOSHEN         CLEAR     69  64  84 SE7       29.92S
MONTICELLO*    CLOUDY    67  63  87 CALM      29.91R
WARSAW*        FOG       64  64 100 CALM      29.93R VSB 1/2
ANGOLA*        MOCLDY    66  57  72 E3        29.94R
FORT WAYNE     PTCLDY    68  66  93 E5        29.93R FOG

$$
INZ028>050-291200-
CENTRAL INDIANA

CITY           SKY/WX    TMP DP  RH WIND       PRES   REMARKS
LAFAYETTE      FOG       68  68 100 CALM      29.91R VSB<1/4
KOKOMO*        CLOUDY    63  57  82 CALM      29.92R VSB 1
MUNCIE*        CLEAR     69  65  86 CALM      29.92R
INDIANAPOLIS   PTCLDY    70  67  90 SE3       29.93R

$$
MIZ043>046-050>051-056>058-064>065-071>073-077>080-291200-
SOUTHWEST LOWER MICHIGAN

CITY           SKY/WX    TMP DP  RH WIND       PRES   REMARKS
BATTLE CREEK   CLOUDY    65  65 100 E5        29.96R
BENTON HARBOR  CLEAR     67  64  90 E5        29.92R
COLDWATER*     CLOUDY    68  63  83 E5        29.95R
HILLSDALE*     CLEAR     64  60  88 CALM      29.96R
HOLLAND        CLOUDY    68  62  81 NE6       29.96R
GRAND RAPIDS   CLOUDY    67  63  87 NE6       29.98R
KALAMAZOO      MOCLDY    67  62  84 VRB5      29.94R
STURGIS*       MOCLDY    66  64  96 CALM      29.94R
THREE RIVERS*  FAIR      68  65  89 CALM      29.94S

$$
OHZ001>008-015>018-024>025-291200-
NORTHWEST OHIO

CITY           SKY/WX    TMP DP  RH WIND       PRES   REMARKS
DEFIANCE       CLEAR     70  60  70 NE3       29.94R
FINDLAY        CLEAR     67  62  84 E3        29.92R HAZE
TOLEDO EXPRESS CLOUDY    67  61  81 N3        29.93R
TOLEDO METCALF CLOUDY    71  64  78 N3        29.94R
LIMA           CLEAR     67  65  93 SE6       29.93R

$$
AND FOR LAKE MICHIGAN COASTAL AND OPEN LAKE BUOY OBSERVATIONS

STATION/POSITION TEMP    WIND        PRES    VSBY  WAVE
                 AIR SEA DIR/SP/G                  HT/PER
                 (F)     (DEG/KT/KT) (MB)    (MI)  (FT/S)
CALUMET HARBOR    73      40/  3/  4 1012.2R
MICHIGAN CITY     69     100/  4/  5   N/A
BURNS HARBOR      72      70/  3/  8 1013.2S
SAINT JOSEPH      69     210/  1/  3 1013.2S
SOUTH LAKE BUOY   73 75   70/ 14/ 16 1012.7          2/ 6
4 MI NW BRIDGMAN  71 76  100/ 10/ 14 1012.4R         2
MICHIGAN CITY     74 77  100/  6/  8   N/A           2/ 6

$$
&&



USA.gov is the U.S. government's official web portal to all federal, state and local government web resources and services.